Location: Cazarilh
(42.9578°N, 0.5819°E)
Time: 13:02:29
(UTC+00:00)

Cosmos 2180 Rocket - Pass Details

Date: 11 December 2019
Orbit: 955 x 1004 km, 82.9° (Epoch: 19 January)

Event Time Altitude Azimuth Distance (km) Brightness Sun altitude
Rises 06:13:24 0° 197° (SSW) 3,617 7.5 -11.5°
Reaches altitude 10° 06:15:55 10° 201° (SSW) 2,675 6.8 -11.1°
Maximum altitude 06:21:56 59° 281° (W) 1,097 4.5 -10.0°
Drops below altitude 10° 06:28:02 10° 1° (N) 2,706 6.6 -9.0°
Sets 06:30:37 0° 5° (N) 3,662 7.3 -8.6°
